Weather History for Defiance, OH

Change the Weather History Date:

Tuesday, November 23, 2010

  Actual Average Record
Temperature  
Mean Temperature 43 °F -  
Max Temperature 60 °F 44 °F 69 °F (1999)
Min Temperature 25 °F 27 °F 10 °F (1970)
Degree Days  
Heating Degree Days 22    
Moisture  
Dew Point 36 °F    
Average Humidity 75    
Maximum Humidity 90    
Minimum Humidity 55    
Precipitation  
Precipitation 0.16 in - - ()
Sea Level Pressure  
Sea Level Pressure 30.01 in    
Wind  
Wind Speed 10 mph (West)    
Max Wind Speed 17 mph    
Max Gust Speed 28 mph    
Visibility 10 miles    
Events Rain    
Averages and records for this station are not official NWS values.
T = Trace of Precipitation, MM = Missing Value Source: NWS Daily Summary

Daily Weather History Graph

Daily Weather History Graph

Search for Another Location

Airport:

Trip Planner

Search our weather history database for the weather conditions in past years. The results will help you decide how hot, cold, wet, or windy it might be!

Date:

Astronomy

Nov. 23, 2010 Rise Set
Actual Time 7:35 AM EST 5:12 PM EST
Civil Twilight 7:05 AM EST 5:42 PM EST
Nautical Twilight 6:31 AM EST 6:16 PM EST
Astronomical Twilight 5:58 AM EST 6:49 PM EST
Moon 6:51 PM EST (11/23) 9:33 AM EST (11/23)
Length of Visible Light 10h 37m
Length of Day
9h 37m
Waning Gibbous, 96% of the Moon is Illuminated
Nov 23
Waning Gibbous
Nov 28
Last Quarter
Dec 5
New
Dec 13
First Quarter
Dec 21
Full

Hourly Weather History & Observations

Time (EST) Temp. Windchill Dew Point Humidity Pressure Visibility Wind Dir Wind Speed Gust Speed Precip Events Conditions
12:02 AM 60.8 °F - 55.4 °F 82% 29.75 in 6.0 mi SW 11.5 mph 27.6 mph 0.01 in Rain Light Rain
12:11 AM 60.8 °F - 57.2 °F 88% 29.74 in 8.0 mi SW 9.2 mph - 0.02 in Rain Light Rain
12:53 AM 60.1 °F - 55.9 °F 86% 29.73 in 9.0 mi SSW 15.0 mph 20.7 mph 0.07 in Rain Light Rain
1:53 AM 59.0 °F - 55.9 °F 90% 29.75 in 10.0 mi SSW 16.1 mph 25.3 mph 0.08 in Rain Light Rain
2:16 AM 59.0 °F - 55.4 °F 88% 29.77 in 10.0 mi SW 17.3 mph 26.5 mph 0.01 in   Overcast
2:40 AM 59.0 °F - 55.4 °F 88% 29.75 in 10.0 mi SW 12.7 mph 23.0 mph 0.01 in   Overcast
2:48 AM 59.0 °F - 55.4 °F 88% 29.77 in 10.0 mi SW 10.4 mph 18.4 mph 0.01 in   Mostly Cloudy
2:53 AM 59.0 °F - 55.0 °F 87% 29.78 in 10.0 mi WSW 9.2 mph 18.4 mph 0.01 in   Mostly Cloudy
3:02 AM 59.0 °F - 55.4 °F 88% 29.78 in 10.0 mi WSW 11.5 mph 19.6 mph N/A   Mostly Cloudy
3:30 AM 53.6 °F - 46.4 °F 77% 29.82 in 10.0 mi Variable 4.6 mph 24.2 mph N/A   Mostly Cloudy
3:53 AM 52.0 °F - 45.0 °F 77% 29.85 in 10.0 mi West 10.4 mph 21.9 mph N/A   Scattered Clouds
4:06 AM 50.0 °F - 44.6 °F 82% 29.85 in 10.0 mi WNW 9.2 mph 18.4 mph N/A   Mostly Cloudy
4:46 AM 48.2 °F - 42.8 °F 82% 29.87 in 10.0 mi WNW 11.5 mph 24.2 mph N/A   Mostly Cloudy
4:53 AM 46.9 °F - 41.0 °F 80% 29.88 in 10.0 mi West 9.2 mph 25.3 mph N/A   Mostly Cloudy
5:02 AM 46.4 °F 41.9 °F 39.2 °F 76% 29.89 in 10.0 mi West 9.2 mph - N/A   Scattered Clouds
5:53 AM 43.0 °F 38.2 °F 37.0 °F 80% 29.92 in 10.0 mi WNW 8.1 mph - N/A   Clear
6:53 AM 42.1 °F 36.6 °F 35.1 °F 76% 29.96 in 10.0 mi West 9.2 mph - N/A   Scattered Clouds
7:38 AM 41.0 °F 36.4 °F 35.6 °F 81% 29.96 in 10.0 mi West 6.9 mph - N/A   Mostly Cloudy
7:53 AM 39.9 °F 35.1 °F 33.1 °F 77% 29.98 in 10.0 mi Variable 6.9 mph 20.7 mph N/A   Mostly Cloudy
8:00 AM 39.2 °F 33.0 °F 33.8 °F 81% 29.98 in 10.0 mi West 9.2 mph - N/A   Scattered Clouds
8:53 AM 39.0 °F 32.3 °F 30.9 °F 73% 30.02 in 10.0 mi West 10.4 mph 18.4 mph N/A   Mostly Cloudy
9:02 AM 37.4 °F 31.4 °F 30.2 °F 75% 30.02 in 10.0 mi West 8.1 mph 18.4 mph N/A   Partly Cloudy
9:32 AM 37.4 °F 31.4 °F 30.2 °F 75% 30.03 in 10.0 mi West 8.1 mph 17.3 mph N/A   Mostly Cloudy
9:53 AM 37.9 °F 31.5 °F 30.0 °F 73% 30.05 in 10.0 mi West 9.2 mph 18.4 mph N/A   Mostly Cloudy
10:28 AM 37.4 °F 32.1 °F 28.4 °F 70% 30.06 in 10.0 mi Variable 6.9 mph 24.2 mph N/A   Scattered Clouds
10:53 AM 39.0 °F 31.8 °F 28.0 °F 65% 30.08 in 10.0 mi West 11.5 mph 19.6 mph N/A   Partly Cloudy
11:28 AM 39.2 °F 32.0 °F 28.4 °F 65% 30.08 in 10.0 mi West 11.5 mph 19.6 mph N/A   Mostly Cloudy
11:37 AM 39.2 °F 32.5 °F 26.6 °F 61% 30.09 in 10.0 mi WNW 10.4 mph 21.9 mph N/A   Scattered Clouds
11:48 AM 39.2 °F 32.0 °F 28.4 °F 65% 30.09 in 10.0 mi WSW 11.5 mph 20.7 mph N/A   Mostly Cloudy
11:53 AM 39.0 °F 31.4 °F 28.0 °F 65% 30.10 in 10.0 mi West 12.7 mph 21.9 mph N/A   Scattered Clouds
12:38 PM 39.2 °F 31.6 °F 26.6 °F 61% 30.10 in 10.0 mi West 12.7 mph 21.9 mph N/A   Mostly Cloudy
12:45 PM 37.4 °F 30.8 °F 26.6 °F 65% 30.10 in 10.0 mi West 9.2 mph 20.7 mph N/A   Scattered Clouds
12:53 PM 39.0 °F 31.8 °F 26.1 °F 60% 30.11 in 10.0 mi WSW 11.5 mph 21.9 mph N/A   Scattered Clouds
2:53 PM 39.9 °F 32.9 °F 25.0 °F 55% 30.14 in 10.0 mi West 11.5 mph 20.7 mph N/A   Clear
3:53 PM 39.0 °F 34.0 °F 24.1 °F 55% 30.16 in 10.0 mi Variable 6.9 mph - N/A   Clear
4:53 PM 36.0 °F 30.3 °F 23.0 °F 59% 30.19 in 10.0 mi Variable 6.9 mph - N/A   Clear
5:53 PM 34.0 °F 28.0 °F 23.0 °F 64% 30.23 in 10.0 mi WNW 6.9 mph - N/A   Clear
6:53 PM 32.0 °F 25.6 °F 23.0 °F 69% 30.27 in 10.0 mi WNW 6.9 mph - N/A   Clear
7:53 PM 30.9 °F 26.2 °F 21.9 °F 69% 30.31 in 10.0 mi NW 4.6 mph - N/A   Clear
8:53 PM 30.0 °F - 21.9 °F 72% 30.32 in 10.0 mi Calm Calm - N/A   Clear
9:53 PM 28.9 °F - 21.9 °F 75% 30.33 in 10.0 mi Calm Calm - N/A   Clear
10:53 PM 26.1 °F - 21.9 °F 84% 30.34 in 10.0 mi Calm Calm - N/A   Clear
11:53 PM 25.0 °F - 19.9 °F 81% 30.35 in 10.0 mi Calm Calm - N/A   Clear